RH
44 44 44 43 42 40 39 38 38 38 37 35 34 33 32 31 31 31 30 28 26 25 24 24 25 26 27 27 29 29 30 31 32 31 31 31 30 31 32 32 31 30 27 24 22 18 16 15 15 15 14 14 15 15 15 14 15 15 15 14 14 14 14 14 13 14 14 14 14 14 15 16 15 15 15 16 16 16 16 16 16 16 14 15 16 13 11
48 47 45 44 42 40 38 38 38 38 37 35 34 33 32 32 31 30 29 28 27 24 22 21 21 21 22 22 23 24 25 25 26 27 27 28 30 31 32 33 34 35 35 35 34 32 29 25 22 21 18 16 16 16 16 16 16 16 16 16 16 16 16 15 14 14 14 13 13 14 15 15 15 16 16 15 16 17 16 16 17 16 14 16 17 12 11
48 48 47 45 44 41 40 40 39 38 36 35 34 33 32 32 30 28 26 25 24 23 22 21 20 19 18 18 17 18 19 19 19 20 20 21 22 22 24 25 27 29 30 32 34 37 38 37 35 34 32 29 25 21 20 18 18 18 18 18 18 17 17 15 15 16 15 14 16 19 18 15 14 15 16 16 17 17 17 18 18 16 14 16 17 13 14
49 49 48 47 45 44 42 40 39 37 36 35 34 33 32 30 28 27 25 24 23 22 22 21 20 19 18 17 16 15 15 14 15 14 14 14 15 15 16 16 17 19 20 21 23 26 29 32 34 37 40 41 38 35 33 30 26 23 22 21 21 20 19 18 18 18 16 17 19 22 23 21 18 18 18 19 19 20 20 20 19 19 19 17 16 17 17
52 50 48 46 44 43 41 40 39 37 35 35 33 31 30 29 27 26 24 22 21 20 20 20 19 19 19 18 16 15 14 14 13 13 12 11 11 11 11 11 12 12 12 13 14 15 17 19 22 26 29 34 37 38 41 44 43 40 35 31 28 25 21 19 21 22 20 20 21 23 25 24 22 23 23 21 22 22 22 21 21 23 24 19 17 21 22
50 48 46 44 41 40 38 37 36 33 31 30 29 27 27 26 25 24 23 21 20 19 18 18 17 17 17 16 16 15 14 13 12 12 11 10 10 10 10 10 10 9 9 9 9 9 10 10 12 14 16 19 23 25 31 36 41 45 47 46 45 42 34 29 27 25 22 23 25 25 27 27 25 25 25 24 24 23 22 23 24 26 27 22 21 27 28
47 44 42 40 37 34 31 28 28 29 27 26 26 24 23 23 21 21 20 19 18 17 16 15 15 14 13 13 12 12 11 11 10 10 9 8 8 8 8 7 7 7 7 7 7 7 8 7 7 8 9 10 11 13 16 18 21 27 31 35 42 46 45 44 43 39 34 32 30 29 30 29 28 27 26 26 27 26 26 26 26 29 30 28 29 33 31
38 36 35 34 31 27 25 23 23 23 23 23 21 19 19 19 18 18 18 17 15 14 13 12 11 10 10 9 9 9 8 7 7 7 7 6 6 6 6 6 5 5 5 5 5 5 5 6 6 6 6 7 6 7 8 8 10 12 13 16 21 24 29 36 41 45 45 44 45 46 44 39 36 33 27 26 28 29 30 32 33 37 37 35 38 39 36
28 27 27 27 26 24 22 20 18 17 18 17 16 16 16 15 14 15 15 14 12 11 9 9 8 8 8 7 7 7 6 5 5 5 5 5 4 4 4 4 4 4 4 4 4 4 4 4 5 5 5 5 5 5 5 5 5 5 5 7 7 9 12 14 17 22 27 34 42 46 51 59 57 42 33 35 36 34 35 38 42 47 51 50 48 46 46
22 23 23 23 23 21 18 16 15 13 13 13 13 13 13 12 12 11 10 9 9 8 7 6 6 6 6 5 5 5 5 4 4 4 4 4 4 4 4 4 4 3 3 3 3 4 4 3 3 4 4 3 4 4 4 4 4 4 4 4 4 5 5 5 12 18 16 13 16 25 47 70 62 37 33 44 47 48 53 54 53 56 60 59 55 52 57
21 20 20 19 19 17 15 13 12 11 11 11 11 11 10 9 8 7 7 7 7 6 6 6 6 5 5 5 5 5 5 5 5 5 4 4 4 4 4 4 3 3 3 4 3 3 3 3 3 3 3 3 3 3 3 3 3 3 3 3 4 4 2 5 16 22 14 5 13 38 55 51 30 18 24 33 33 39 50 56 61 69 74 72 69 68 70
15 14 14 13 13 12 12 11 10 10 10 10 9 9 8 8 7 7 6 6 6 6 6 6 6 5 5 6 6 6 6 5 5 5 5 5 5 5 5 5 5 4 4 3 3 3 3 3 3 3 3 3 3 3 3 3 3 4 3 3 4 4 4 6 8 11 11 10 28 54 47 18 6 12 15 15 18 22 28 36 44 58 74 77 73 77 82
11 10 10 10 10 10 10 10 10 10 10 9 9 9 8 7 7 7 6 6 6 5 5 5 6 6 6 6 6 6 6 6 6 6 6 6 6 6 6 6 6 5 5 5 4 4 4 4 4 3 3 3 3 3 3 2 2 3 2 3 4 3 4 6 4 7 15 18 26 37 27 6 5 10 4 5 11 10 12 19 24 38 58 63 61 76 89
10 10 10 10 11 11 11 10 10 10 10 10 9 8 8 8 7 7 7 7 6 5 5 5 6 6 7 7 7 7 7 7 7 7 7 7 7 7 8 8 8 7 6 6 5 5 5 5 4 4 4 4 4 3 3 3 3 3 3 3 4 3 2 3 4 7 16 19 18 24 27 19 11 9 8 9 10 10 18 26 25 31 46 52 62 84 93
11 11 12 12 12 12 12 11 11 11 10 10 9 9 9 9 9 9 9 8 7 6 6 6 7 7 8 9 9 9 9 9 9 9 9 8 8 8 9 8 9 9 9 8 7 6 6 5 5 5 4 4 4 4 4 4 3 3 4 3 3 4 4 4 5 5 8 12 15 25 33 26 15 14 16 15 18 29 45 52 42 35 41 55 73 88 91
13 13 13 13 13 12 12 12 11 11 11 11 11 10 10 10 10 11 10 10 9 8 8 8 9 9 9 10 10 11 11 11 10 10 10 10 10 10 10 10 11 12 11 10 8 7 6 6 6 5 5 5 5 5 5 5 5 5 5 5 4 5 6 8 9 9 8 7 13 24 26 16 9 11 13 14 20 31 50 63 55 40 39 54 72 84 88
13 14 13 13 13 13 12 12 12 12 12 12 11 11 11 11 12 12 12 12 12 11 11 11 11 11 11 11 12 12 13 12 12 12 11 11 13 13 13 13 13 13 13 12 10 9 8 7 6 6 6 6 6 6 6 5 5 5 5 5 5 4 5 7 9 12 11 6 9 19 19 10 8 10 12 14 16 22 39 53 48 35 32 39 55 75 86
13 12 12 12 12 12 12 11 11 11 11 11 11 11 12 12 13 13 14 14 13 13 13 13 13 13 13 13 13 13 13 13 14 15 14 14 15 15 14 14 14 14 14 13 12 10 9 8 8 7 6 7 6 7 7 6 6 7 5 6 7 5 5 7 6 6 8 11 17 19 13 9 10 9 9 11 12 22 41 51 49 48 48 46 54 73 89
13 12 12 12 12 12 12 12 12 12 12 12 13 13 14 14 15 15 16 16 15 15 14 14 15 16 16 16 15 15 15 16 17 17 17 17 17 16 14 14 14 15 15 14 13 12 10 9 8 7 7 8 7 7 7 6 6 7 7 8 9 8 9 12 13 10 8 12 21 21 13 12 17 17 15 13 15 26 39 43 46 55 64 69 74 84 94
16 16 16 16 16 16 16 16 16 16 16 16 16 17 17 17 18 18 19 19 18 16 16 17 18 18 18 18 18 18 19 20 21 21 20 17 16 16 15 14 15 15 14 13 12 11 10 9 9 9 9 8 7 8 8 8 7 7 7 8 9 11 16 19 20 18 14 10 10 14 15 15 19 30 42 48 48 49 45 36 34 39 50 63 71 76 86
19 19 20 20 20 20 20 21 21 21 21 21 21 21 22 22 22 22 22 22 20 17 17 20 21 21 21 20 21 23 23 24 24 22 19 17 17 17 15 14 14 13 12 12 11 10 10 9 9 9 8 8 8 8 7 6 6 5 6 6 6 7 12 16 16 20 27 27 20 20 27 31 30 41 63 77 79 77 72 66 61 55 52 55 58 67 84
22 22 23 23 24 24 25 25 25 25 25 26 25 25 26 27 28 28 27 27 25 22 20 22 22 22 22 23 25 27 26 25 23 20 19 18 16 15 14 12 11 11 10 10 9 8 9 9 9 9 9 9 8 8 8 8 8 7 6 7 8 8 9 11 11 14 22 27 24 26 35 41 39 41 51 64 73 79 81 81 82 82 81 79 78 84 95
27 27 28 28 29 29 29 29 30 30 30 30 30 31 32 33 34 34 34 33 31 27 24 24 24 23 24 25 27 26 24 21 19 18 17 15 12 12 11 9 9 9 9 8 8 8 9 9 9 9 9 9 8 8 8 6 5 6 6 4 5 8 11 11 9 9 11 12 16 27 32 29 30 40 49 56 65 77 85 88 92 95 97 96 95 98 100
34 34 34 34 34 34 34 35 35 35 36 36 36 37 38 39 40 40 39 38 35 32 29 27 25 24 24 24 23 21 19 17 16 15 13 12 11 10 9 8 9 9 8 8 9 9 8 8 9 10 10 10 9 7 8 13 15 13 12 15 19 24 28 28 21 16 14 11 15 31 43 42 44 56 72 82 84 89 95 98 97 96 94 95 98 101 100
39 40 40 40 40 40 40 40 41 41 41 41 41 41 41 42 42 41 39 37 34 32 29 25 24 23 22 20 18 17 16 15 14 12 12 11 11 9 9 10 10 8 9 10 9 9 9 9 9 9 8 7 7 10 21 36 40 33 27 31 39 41 37 32 31 33 36 31 27 34 52 66 67 65 78 95 100 99 101 101 99 98 97 97 98 98 98
44 44 44 44 44 44 44 43 43 43 42 41 41 40 39 39 38 37 36 34 32 30 26 22 21 21 19 18 16 15 15 14 12 12 12 11 11 10 10 10 10 10 10 9 7 11 14 13 12 12 15 19 22 24 30 35 37 37 33 27 30 44 51 48 55 72 81 74 64 58 62 73 80 80 88 99 100 98 101 102 100 99 99 99 101 100 98
43 44 44 45 45 44 44 44 43 42 41 40 40 39 38 38 36 35 33 32 30 28 25 21 20 19 18 17 16 15 15 13 13 13 12 11 11 11 10 10 10 10 11 15 20 24 27 30 31 32 36 39 35 32 36 42 44 48 44 28 25 53 83 89 87 96 103 99 93 86 76 71 76 83 91 98 101 102 104 104 102 102 101 99 95 88 82
40 41 41 41 42 42 42 42 42 41 40 40 39 39 37 35 34 32 31 29 27 25 23 22 20 18 17 16 15 15 14 13 12 12 11 12 13 12 11 11 11 12 19 30 37 41 48 58 63 62 62 61 56 52 56 62 60 51 40 28 24 42 77 101 104 99 99 100 101 100 96 92 89 87 85 86 91 96 98 97 95 92 86 79 73 71 74
38 39 39 40 40 41 41 40 40 40 39 38 37 35 33 32 31 28 26 23 21 19 19 19 18 17 16 15 14 14 13 12 11 11 12 15 16 16 19 21 21 22 24 25 30 46 64 75 80 78 73 71 73 72 66 62 59 51 40 34 28 26 43 76 100 103 101 100 99 98 99 99 99 97 93 88 87 89 91 89 84 80 78 79 81 84 86
37 37 38 38 38 37 37 37 37 36 35 33 32 31 30 28 25 23 20 19 18 19 19 18 17 15 15 14 13 12 11 10 11 15 20 23 22 25 29 30 29 29 25 27 51 81 91 86 84 80 70 64 65 61 54 53 56 52 43 37 35 29 27 41 65 85 94 99 101 101 101 101 101 102 102 98 96 98 99 96 94 95 96 97 94 90 83
35 35 35 34 33 33 33 32 31 30 29 28 27 26 25 22 21 22 24 23 22 21 20 17 15 13 13 12 11 12 13 16 21 27 32 32 31 35 39 37 36 36 33 40 71 99 98 88 83 72 62 67 76 74 73 73 60 42 37 40 43 42 37 34 44 57 62 64 70 76 83 90 92 92 96 101 101 100 102 102 101 99 95 89 84 77 67
28 28 28 27 26 26 25 24 24 23 21 20 20 19 19 17 15 17 18 17 16 17 17 16 14 12 11 11 14 18 19 25 34 40 40 41 44 51 59 62 60 58 53 50 59 67 64 63 67 61 57 75 94 99 96 86 61 47 58 67 60 53 57 68 78 81 73 66 62 57 56 63 65 64 76 93 100 101 103 102 97 91 84 78 71 59 42
19 20 20 18 18 18 17 17 17 15 15 16 15 15 15 14 13 14 15 16 17 18 19 18 16 15 16 19 24 26 26 36 51 54 48 51 60 67 78 89 89 86 84 78 70 64 58 58 61 61 64 81 98 97 83 71 67 76 90 91 79 74 82 94 102 103 99 97 93 80 72 75 73 62 63 79 94 98 99 96 90 82 73 61 47 32 20
14 15 14 13 14 13 12 13 13 12 14 13 10 11 15 16 16 16 15 16 19 22 26 29 27 26 27 29 33 34 36 48 67 69 59 63 74 80 86 97 100 98 99 98 91 85 84 83 77 69 69 84 98 92 74 68 77 87 93 95 94 94 98 101 102 102 101 101 101 95 90 92 90 78 67 69 75 78 81 83 80 69 54 37 24 17 17
14 13 13 14 14 13 12 13 12 11 11 10 14 24 28 24 19 17 19 25 32 36 40 42 39 35 33 34 39 45 46 49 59 63 60 68 84 94 96 97 96 96 98 98 94 92 93 94 90 82 77 80 84 79 74 77 83 87 93 99 97 92 91 95 98 99 97 93 91 93 94 94 96 94 86 79 72 69 70 69 60 43 28 19 17 20 25
14 14 15 14 12 13 14 13 10 12 15 20 27 35 33 27 28 35 43 48 51 48 45 42 38 37 38 40 45 50 54 59 65 64 61 68 85 99 102 97 91 91 90 84 78 79 85 93 97 91 81 72 69 72 84 93 94 93 97 99 94 89 88 86 84 85 83 79 78 83 86 85 84 81 75 68 62 56 50 42 30 20 18 20 24 29 32
14 14 13 12 15 16 14 12 14 20 28 35 37 39 45 55 65 68 64 58 56 56 49 37 33 42 50 53 55 59 67 81 87 79 73 80 91 98 101 97 90 86 83 75 71 74 82 90 92 87 82 81 83 92 101 101 92 86 89 94 98 96 88 79 74 72 70 69 69 71 70 68 65 59 51 43 36 30 25 21 18 20 24 28 32 34 34
12 12 14 18 21 15 13 23 35 40 46 57 64 70 83 92 87 76 66 59 58 61 52 38 41 59 67 63 64 71 76 83 87 85 86 95 101 99 97 95 89 82 77 75 78 82 82 82 82 83 90 96 98 100 101 94 81 75 79 85 90 88 82 78 76 73 69 67 65 62 59 55 49 43 38 33 28 25 25 25 26 29 32 35 37 38 38
19 20 18 17 19 23 38 63 77 76 80 91 95 97 101 98 85 78 77 71 64 63 60 54 61 74 71 60 66 80 83 79 83 88 90 95 99 98 94 94 93 85 76 74 78 83 86 85 81 81 92 102 102 100 98 88 74 68 72 77 80 80 79 74 66 59 55 54 51 48 46 44 39 37 38 39 37 35 34 33 33 35 38 41 43 42 41
26 25 22 28 46 65 82 95 99 97 99 102 100 98 100 97 90 87 84 76 71 72 73 72 75 77 69 62 70 86 91 86 87 94 96 95 96 92 87 87 87 78 71 71 73 76 85 91 85 81 91 102 102 98 92 82 70 64 65 67 67 66 63 55 46 43 47 52 53 52 52 51 50 50 51 50 48 45 43 41 41 43 45 46 47 46 46
41 46 55 70 88 99 100 100 100 101 101 101 100 101 101 99 95 86 73 70 80 86 83 81 82 81 75 70 75 88 96 96 96 98 97 93 88 80 75 76 72 62 61 70 72 70 77 86 86 86 95 103 102 96 88 79 74 72 70 65 60 55 51 50 51 56 65 72 73 70 68 65 63 60 57 55 53 50 48 47 48 49 49 49 48 48 48
83 87 93 98 102 101 99 100 101 100 100 100 101 100 93 90 92 88 78 80 92 97 92 90 91 89 86 82 81 87 96 99 98 94 87 81 78 73 68 67 63 56 58 68 70 68 72 78 84 94 100 100 97 94 86 77 79 86 90 88 83 78 73 72 72 75 79 80 78 74 71 69 67 64 61 60 58 55 53 53 51 50 49 49 49 50 50
101 100 100 100 101 100 100 100 100 100 100 99 95 92 89 89 94 97 95 96 98 96 95 96 94 90 90 90 87 89 94 96 95 91 82 75 72 71 68 68 66 64 66 70 69 65 64 69 82 98 101 92 89 90 86 81 86 96 101 101 98 95 92 89 85 84 83 82 78 75 72 70 68 67 65 63 61 58 55 52 49 48 49 50 51 51 48
100 100 100 101 100 99 99 100 98 96 95 93 92 95 99 101 101 101 100 99 96 94 95 96 92 89 91 94 93 94 96 97 95 93 84 74 70 70 70 70 69 69 72 72 65 59 61 70 81 88 87 83 84 87 85 83 87 94 97 96 92 89 88 85 81 79 79 78 76 74 71 69 68 67 65 63 60 56 52 50 50 51 52 52 51 47 41
100 100 99 100 99 98 98 97 91 87 90 95 99 102 104 104 102 101 99 97 97 96 96 95 93 92 94 96 96 97 98 98 99 98 88 75 70 71 70 67 66 68 71 70 63 64 76 89 89 81 76 76 80 82 83 83 83 86 89 88 84 80 80 80 77 75 74 73 73 73 70 67 66 64 62 59 56 53 52 53 53 53 51 47 42 39 40
101 101 100 101 101 98 95 92 89 89 95 100 103 103 103 102 102 101 99 98 99 99 98 96 95 95 96 97 99 100 99 98 100 98 89 77 74 75 74 70 67 66 66 69 73 80 90 94 87 79 78 81 82 82 83 83 81 82 86 85 80 77 77 78 78 77 75 73 73 71 68 66 66 64 61 59 58 57 56 54 52 49 44 37 35 44 59
101 101 100 99 99 97 94 94 96 99 101 101 102 102 102 101 101 100 99 99 100 101 100 98 96 96 97 99 101 102 100 98 97 94 88 81 80 81 81 80 80 79 79 83 87 90 90 85 79 76 78 80 81 83 84 82 79 81 83 82 79 78 77 76 75 73 70 67 66 65 63 63 62 61 60 59 57 54 52 48 44 38 33 36 50 72 89
103 103 100 98 99 99 98 99 101 101 100 100 100 100 100 101 102 101 100 100 100 100 101 101 100 98 99 99 99 97 96 94 94 91 85 80 80 80 80 82 88 95 98 97 94 92 91 89 84 79 76 75 76 79 81 80 80 81 79 75 72 71 70 68 65 62 59 58 58 57 57 56 56 56 56 54 50 47 45 39 32 31 41 60 82 98 103
102 101 99 99 101 102 102 101 101 101 100 100 100 100 100 102 102 101 99 100 100 100 101 101 100 101 100 97 93 89 87 87 88 88 83 80 80 80 80 83 91 99 101 98 94 92 93 92 87 81 78 77 77 76 75 76 77 76 72 69 68 68 66 63 61 58 56 55 53 51 51 51 51 50 48 44 42 39 35 28 30 47 72 91 100 102 103
100 99 100 101 103 102 101 100 100 100 100 100 100 100 100 101 101 100 100 100 100 100 100 99 98 97 95 91 87 85 84 83 83 84 83 84 85 84 84 89 97 101 100 98 96 94 93 91 87 80 76 73 71 70 70 71 70 68 68 69 71 69 65 60 56 52 49 45 43 42 41 40 39 38 36 34 32 29 28 35 55 79 97 103 102 101 103
101 101 102 102 101 100 100 100 101 100 100 100 100 100 98 97 97 99 100 99 98 98 100 100 97 93 91 89 88 88 89 88 89 91 94 96 95 93 94 99 101 99 97 96 94 90 86 83 78 74 69 65 62 62 64 64 65 68 69 66 62 59 56 51 46 42 39 35 34 33 32 31 31 32 31 29 28 33 47 70 90 100 101 101 103 103 101
101 101 101 101 101 100 100 100 100 100 100 100 99 97 94 91 91 93 95 94 92 93 96 96 92 89 89 91 90 88 88 89 92 96 98 98 97 97 98 98 95 93 94 94 89 81 76 72 68 64 61 58 55 55 56 58 61 62 58 53 59 71 75 68 58 53 51 50 49 49 47 45 42 40 39 42 51 65 82 96 102 101 100 101 102 101 100
Wind_Speed
39 39 40 40 40 39 39 38 38 37 37 36 36 36 36 36 36 35 34 34 34 33 33 33 33 33 33 34 34 34 34 35 35 36 37 39 39 39 40 40 40 40 40 40 41 41 41 42 41 41 41 42 42 42 42 43 43 43 44 45 45 45 46 47 47 47 48 50 50 49 49 48 45 45 45 45 46 46 47 48 49 51 53 54 56 56 53
42 42 42 42 43 43 42 42 41 41 40 40 39 39 38 38 38 37 36 35 35 35 34 33 33 33 34 34 34 34 35 35 34 35 36 37 38 38 39 40 41 41 41 42 43 43 43 43 43 43 43 43 43 42 42 43 43 44 45 45 46 45 46 47 48 47 49 50 50 49 49 49 46 45 46 46 46 46 47 48 49 52 52 54 58 56 52
44 44 44 45 45 45 45 45 45 44 44 44 43 42 42 41 41 40 39 38 37 36 36 36 35 34 34 34 34 35 36 36 36 36 36 37 37 38 39 40 41 42 42 42 43 43 44 45 45 46 46 45 45 44 43 43 44 44 45 46 46 46 47 49 48 48 49 50 49 49 51 52 49 46 47 47 46 47 48 48 50 54 54 55 57 55 50
46 46 46 47 47 47 47 47 47 47 46 47 46 46 45 45 44 43 42 41 39 38 38 39 39 38 37 36 36 36 37 37 38 38 38 37 38 39 40 40 41 42 43 43 43 43 44 45 46 47 47 48 49 48 46 45 46 46 46 46 47 48 48 49 49 50 50 49 49 49 51 54 53 50 50 48 47 48 48 49 52 54 56 56 55 52 50
48 48 48 48 48 48 48 49 49 48 48 48 48 47 47 47 47 46 44 44 43 42 41 41 41 41 42 41 40 39 40 40 40 40 41 40 41 41 42 43 43 43 43 44 44 45 45 45 46 47 48 48 50 50 49 48 48 48 48 48 49 50 51 50 50 51 51 50 50 50 52 54 53 52 52 50 49 49 49 51 53 53 56 55 50 49 52
50 50 49 49 48 48 48 49 49 49 49 49 49 48 48 48 48 47 47 46 46 45 44 44 44 44 44 44 44 43 44 44 43 43 43 44 44 44 45 46 46 45 45 46 46 47 47 46 47 48 48 48 49 50 50 50 50 49 50 50 51 53 54 52 53 55 54 52 52 53 54 56 55 54 53 51 51 52 51 54 55 53 55 54 49 50 54
51 51 51 50 49 49 49 49 50 50 50 50 50 49 49 49 49 49 49 49 48 47 47 47 46 46 46 46 45 45 45 46 46 46 46 46 46 47 47 48 47 47 48 48 48 49 49 49 48 49 49 49 50 50 50 50 51 50 51 51 51 54 55 54 55 58 57 56 56 56 56 58 58 57 55 53 53 54 55 57 56 53 54 54 53 55 56
52 52 52 51 50 50 50 50 50 51 51 51 51 50 50 50 51 51 51 50 50 49 49 48 48 48 48 47 48 47 46 46 46 46 46 47 47 47 48 49 48 48 48 49 50 51 52 52 51 51 51 50 50 51 50 50 50 51 51 50 51 54 55 54 55 58 59 58 58 59 59 61 62 61 58 57 57 57 57 57 56 55 56 57 57 59 58
53 53 53 53 52 51 51 51 51 51 52 52 52 52 52 52 52 53 53 52 52 51 50 50 49 49 48 48 48 48 47 47 46 46 46 47 47 48 48 49 49 49 49 50 50 51 53 53 53 53 53 51 51 51 51 51 51 51 50 51 52 53 55 55 56 59 60 57 57 59 59 61 65 64 61 59 60 59 58 57 56 57 56 56 58 60 58
54 54 54 54 54 54 53 53 53 53 53 54 54 55 55 55 54 54 54 54 53 51 50 50 50 49 49 48 47 47 48 48 47 46 46 46 46 48 49 49 49 50 50 51 51 51 52 53 53 53 53 53 53 52 52 52 52 52 52 52 52 52 54 55 54 57 58 57 57 57 54 57 64 64 61 59 58 57 58 59 59 58 57 57 59 60 57
56 56 56 56 56 56 55 55 55 56 55 56 56 57 57 57 56 56 55 55 54 52 51 51 50 50 50 48 47 47 47 48 48 47 47 46 46 47 48 49 50 50 50 51 52 52 52 52 53 53 53 54 54 54 54 53 53 53 53 54 53 53 54 54 52 55 57 56 55 54 54 60 64 60 58 59 58 57 59 61 60 58 57 58 59 59 59
57 57 57 58 58 58 58 58 58 59 59 59 59 58 58 58 57 57 56 56 56 55 53 52 52 52 51 50 49 49 48 49 49 50 49 48 47 47 47 48 49 49 50 51 52 53 53 52 53 53 53 54 54 54 55 55 53 53 53 54 55 54 55 55 55 57 58 56 53 55 61 65 62 57 56 59 59 59 60 60 59 57 56 57 58 58 59
59 59 59 60 60 61 61 61 61 61 62 62 61 60 59 59 58 58 58 58 58 58 56 55 54 53 52 52 52 52 51 51 51 51 51 50 49 49 48 48 49 49 50 51 52 53 53 53 53 53 53 54 55 55 55 54 53 52 53 54 54 55 56 57 58 59 59 58 58 61 65 64 60 60 62 60 59 60 59 60 59 56 55 56 56 55 55
62 62 63 63 64 64 64 64 64 64 64 63 63 62 61 60 60 60 60 60 60 59 59 58 57 55 55 55 55 55 54 54 54 53 53 52 52 51 51 51 51 51 51 52 53 55 55 55 55 54 53 54 56 56 54 54 54 53 53 54 53 54 55 57 59 60 59 60 62 62 63 62 61 62 63 60 58 57 56 59 58 54 54 55 53 52 53
65 66 66 66 67 67 67 66 66 66 65 65 64 63 63 62 62 61 61 61 61 61 61 60 60 59 58 57 57 57 56 56 55 55 54 53 53 53 53 54 54 54 54 54 55 56 57 58 58 58 56 56 57 58 56 55 56 55 55 56 55 56 56 57 60 61 59 61 63 62 63 65 61 58 60 60 57 55 55 58 57 53 54 54 53 54 55
68 69 69 69 69 68 68 67 67 66 66 66 66 65 65 64 64 64 63 63 63 63 62 62 62 61 61 60 60 59 58 58 57 57 56 55 55 55 55 55 55 56 56 57 57 58 59 60 61 61 61 59 59 60 59 57 58 57 57 58 58 59 59 59 61 62 60 62 64 63 65 67 63 60 60 59 58 57 58 60 59 55 55 56 55 56 56
70 70 70 69 69 69 69 68 68 68 68 68 68 68 67 66 66 66 66 65 65 64 63 64 64 63 63 63 62 62 61 60 60 59 58 57 57 56 56 55 56 57 59 61 62 62 63 63 63 63 63 60 60 63 63 61 61 60 59 59 60 60 61 61 63 64 63 64 66 65 65 66 64 62 61 59 58 60 60 61 61 58 56 57 57 57 56
71 71 71 71 71 70 70 70 70 70 70 70 70 70 69 69 69 68 68 68 67 65 64 65 65 64 64 64 64 64 63 62 62 61 60 59 59 59 58 57 58 59 60 62 64 64 65 66 65 65 65 63 62 66 67 65 65 63 61 61 62 62 62 62 64 66 65 65 66 66 64 63 62 63 63 61 60 61 63 64 63 59 56 57 56 55 55
73 72 72 72 72 72 72 72 72 72 72 72 72 71 71 71 71 71 70 70 68 67 65 65 65 65 64 65 65 64 64 64 63 63 62 61 62 63 61 59 61 62 63 63 65 65 66 67 66 67 68 67 66 69 70 68 67 66 64 64 64 64 63 63 63 64 64 63 65 65 64 62 60 61 62 60 59 61 63 63 62 60 57 56 55 54 54
74 74 73 73 73 73 73 73 73 73 73 73 73 72 73 72 72 72 71 71 70 68 66 66 66 64 64 64 65 65 65 64 65 65 64 64 64 65 64 61 63 66 66 66 66 66 67 68 68 69 72 71 70 72 73 72 70 69 68 67 67 66 65 64 62 63 63 64 65 65 65 63 60 58 57 55 55 57 60 61 61 62 60 59 58 58 56
74 74 74 74 74 74 73 73 73 73 73 73 73 72 72 72 72 71 71 71 71 68 65 65 66 64 64 64 64 65 65 65 66 68 67 66 66 67 66 64 65 68 69 69 69 70 70 71 72 73 75 75 74 75 77 77 75 73 71 71 70 69 68 67 64 62 62 63 63 63 62 61 59 56 54 52 51 52 53 54 56 58 59 59 59 57 53
75 74 74 74 74 73 73 73 72 72 72 72 71 71 71 71 71 71 70 70 70 68 65 65 65 64 64 64 65 67 67 66 67 68 69 68 68 68 68 67 67 70 72 72 72 74 75 75 76 77 78 78 78 79 79 80 79 77 74 73 72 70 68 68 67 63 63 64 63 62 61 61 60 60 59 58 56 54 53 53 53 53 52 52 53 53 49
74 73 73 73 72 72 72 71 71 71 70 70 70 69 69 69 69 69 69 70 70 68 65 65 65 64 64 65 66 68 68 67 67 68 70 71 70 68 70 71 71 74 76 76 77 79 79 79 80 80 80 80 80 80 81 81 81 80 77 75 73 69 65 66 68 66 65 67 65 63 64 64 63 62 61 60 60 57 53 51 49 47 45 45 45 45 44
72 71 71 71 70 70 70 69 69 69 68 68 68 67 68 68 68 69 69 69 70 69 67 65 64 64 66 66 67 68 68 68 69 70 72 74 73 72 73 75 77 79 80 80 82 83 82 81 81 80 80 80 81 81 80 77 76 75 73 71 67 63 61 63 64 63 63 64 62 61 61 61 61 62 60 57 55 54 52 51 48 46 46 44 40 39 40
69 69 69 68 68 68 68 67 67 67 67 67 67 67 68 68 68 69 70 70 71 71 70 66 63 65 69 68 67 69 69 70 72 74 75 77 78 78 78 79 82 83 81 81 82 82 81 80 79 78 80 80 78 74 69 66 66 67 66 62 59 57 58 59 58 56 57 59 59 59 60 58 57 60 59 53 49 49 49 50 50 50 50 48 46 45 47
69 68 68 68 68 68 68 68 68 68 68 68 68 68 69 69 70 70 71 71 72 74 73 68 63 65 70 70 69 70 71 73 75 76 77 80 82 82 82 81 81 80 79 78 77 75 73 73 73 74 75 72 67 64 62 61 61 63 62 58 54 53 55 56 52 49 49 52 54 57 60 61 60 59 57 52 49 47 45 43 43 43 44 45 47 48 49
70 70 70 70 70 70 69 69 69 69 69 69 69 70 70 70 71 71 71 73 75 76 76 72 67 68 72 72 71 72 73 74 76 77 79 81 80 79 78 76 75 74 72 69 66 63 61 62 63 62 61 58 57 57 57 56 56 58 58 54 50 51 53 51 49 48 46 47 49 51 55 61 63 61 60 58 55 53 50 48 46 46 46 48 49 50 49
73 72 72 72 72 71 71 71 71 71 71 71 71 71 71 71 71 72 73 75 76 76 76 75 73 72 72 70 71 73 73 72 73 76 77 75 71 69 69 68 67 65 60 56 53 51 50 50 49 46 45 45 46 47 46 47 52 56 55 49 47 52 55 52 51 50 46 44 46 45 45 50 54 56 59 61 60 59 58 55 53 51 51 51 50 49 46
74 74 74 74 73 73 73 73 72 72 72 72 72 73 72 72 73 73 73 74 74 75 75 75 74 72 71 70 71 71 69 68 69 70 68 64 60 59 58 56 55 53 50 48 46 42 40 39 36 34 33 34 37 38 38 41 46 48 43 39 41 48 54 58 61 60 52 47 45 44 43 45 47 48 49 50 51 53 53 52 51 49 47 46 43 41 39
76 76 75 75 75 75 75 74 74 74 74 74 75 74 73 72 72 71 70 69 69 69 69 69 69 69 69 69 67 63 60 60 61 58 55 53 52 50 47 44 42 41 40 38 35 33 31 29 27 25 25 28 34 36 34 35 38 36 33 33 36 40 45 54 62 65 62 57 53 51 49 47 47 46 44 40 38 38 38 39 41 40 38 36 35 35 36
78 77 77 77 76 76 76 75 75 74 75 75 75 73 72 70 68 65 63 62 60 59 61 63 65 66 65 62 56 50 48 48 48 46 44 44 43 40 36 33 30 29 29 29 31 33 32 29 25 22 22 26 31 31 28 30 32 29 26 29 33 36 38 42 47 53 59 60 60 59 57 54 52 52 50 45 40 37 34 33 33 32 31 31 33 34 36
79 78 78 77 76 76 76 74 74 73 73 72 72 71 70 66 61 57 56 55 54 55 57 58 59 59 56 49 42 39 39 38 36 35 36 35 34 31 27 23 21 22 23 26 30 33 33 32 30 27 25 26 28 27 26 26 25 20 20 26 32 35 35 35 38 44 49 52 54 56 56 55 56 58 59 54 47 43 40 36 32 30 30 32 33 33 32
77 76 75 75 74 73 72 71 70 69 68 68 68 67 62 56 51 50 50 50 50 50 51 50 50 48 43 35 32 33 33 30 28 28 29 29 28 26 22 19 19 19 20 22 25 26 27 29 30 29 28 28 29 28 25 22 18 17 19 26 31 34 34 35 38 39 38 39 43 46 46 46 47 51 55 53 49 44 41 37 35 34 33 33 31 29 28
71 70 69 68 68 67 65 64 63 63 63 63 61 54 47 44 45 46 47 46 45 44 42 41 39 36 32 28 28 28 26 23 23 24 26 26 24 22 21 21 21 20 19 20 21 21 22 24 26 29 30 30 31 30 25 19 18 21 25 28 31 34 36 37 38 34 31 32 34 36 37 38 38 39 43 46 46 45 42 39 37 35 33 30 27 26 26
64 63 61 60 60 59 58 58 58 58 56 52 44 38 37 40 43 43 41 38 36 34 33 31 31 30 28 26 26 25 22 21 21 23 24 23 22 21 22 24 24 22 21 21 20 19 20 21 24 26 28 29 31 30 26 23 24 26 27 27 30 34 37 37 35 31 29 30 30 30 31 32 32 31 32 34 37 39 38 36 34 31 29 27 25 24 25
58 56 55 54 53 53 52 52 50 47 41 35 32 33 35 37 36 33 30 28 28 28 27 27 28 27 25 23 22 21 18 18 19 21 22 22 21 21 21 22 22 23 24 24 21 19 20 21 20 20 22 25 26 26 27 29 32 31 28 26 29 34 36 35 32 30 29 29 29 28 28 28 27 27 26 26 28 29 29 29 28 27 26 24 23 23 24
52 50 48 47 47 46 45 42 37 32 29 28 30 30 30 28 26 25 25 25 25 25 25 26 25 24 22 21 19 16 14 14 17 19 19 20 20 21 20 20 21 23 23 23 22 21 22 21 18 17 19 20 21 23 26 30 33 33 31 29 29 30 31 31 30 29 29 29 28 28 27 27 26 25 24 24 25 24 24 24 24 23 22 21 22 23 24
43 42 41 40 39 37 32 28 25 24 24 24 24 23 22 22 23 23 23 23 23 24 24 24 22 19 18 18 16 13 13 14 15 16 18 19 20 20 20 19 20 21 20 19 21 23 23 21 20 19 19 19 20 22 24 25 27 28 29 28 26 26 26 26 26 26 26 26 26 26 26 26 25 23 23 23 23 22 22 21 21 20 20 21 22 24 24
33 33 32 30 27 24 20 19 19 20 19 19 19 19 20 22 22 22 21 22 22 23 23 20 16 14 15 15 12 11 13 14 13 15 17 18 18 19 19 19 19 19 18 17 18 19 19 20 21 19 17 16 18 19 19 19 20 21 22 22 22 22 21 21 22 22 22 23 23 23 23 22 22 22 22 22 22 22 21 20 19 19 20 21 23 24 24
24 24 22 19 17 16 16 17 17 17 17 18 20 20 21 21 21 20 20 20 21 21 19 15 13 12 13 12 11 11 13 13 13 14 15 16 17 18 19 19 19 18 17 17 18 17 18 20 21 19 16 15 16 16 17 18 18 17 16 17 18 19 19 20 21 21 21 21 21 21 20 20 20 20 21 21 21 21 21 20 20 20 21 23 24 25 25
18 17 15 15 15 15 15 15 16 17 19 21 21 21 20 20 19 19 19 19 19 17 14 11 9 10 11 11 12 12 12 12 12 14 15 16 17 18 19 20 20 19 19 19 19 19 20 21 21 19 17 15 14 15 17 18 17 15 13 13 14 16 18 18 19 19 18 18 19 19 18 19 19 20 20 20 20 20 20 21 21 22 23 24 24 24 24
16 16 15 15 15 15 16 17 18 20 21 21 21 21 20 18 18 17 17 16 14 12 10 9 9 9 10 11 12 11 11 11 12 14 16 17 17 17 18 20 20 21 21 21 21 22 22 21 20 19 18 15 13 15 17 16 15 14 14 13 13 14 15 16 16 16 17 17 17 18 18 18 18 19 19 19 19 20 21 21 22 23 24 24 24 24 24
16 16 16 16 17 18 19 20 21 22 22 22 21 20 17 15 15 14 13 11 10 10 11 12 12 11 11 11 10 10 10 10 12 14 16 16 16 17 18 19 20 21 21 21 23 24 24 22 20 20 18 15 13 15 17 16 15 15 15 14 13 12 12 13 14 15 15 15 16 17 17 18 18 18 19 20 21 21 22 23 24 24 24 23 23 23 22
18 18 19 19 20 21 22 22 22 22 21 20 19 17 14 13 12 10 9 9 10 11 12 14 13 12 11 11 11 11 12 12 13 15 16 16 16 17 18 19 20 20 20 21 24 25 24 22 21 21 18 16 15 16 17 17 16 15 15 15 14 12 12 13 14 14 15 15 16 17 18 19 19 20 21 22 22 23 24 24 23 23 22 22 22 22 20
20 21 21 21 22 23 22 22 21 19 17 16 15 13 13 12 12 11 12 13 13 13 13 13 13 13 13 12 12 12 13 14 15 16 17 17 17 18 19 20 21 21 21 23 25 24 23 22 23 22 19 17 17 17 17 17 16 16 16 16 15 15 15 15 15 16 16 16 17 18 19 20 20 21 22 23 23 24 23 23 22 22 21 21 21 19 17
20 21 21 21 21 21 20 19 17 15 13 13 13 13 13 14 14 15 15 14 14 13 14 14 14 14 13 12 12 12 14 16 17 17 18 18 18 18 19 20 22 23 23 24 24 23 22 21 20 19 18 16 15 15 16 16 16 16 17 18 18 17 17 16 16 16 17 17 17 18 19 20 21 22 22 22 23 23 22 22 21 20 20 19 18 16 15
18 18 17 17 17 16 15 13 13 12 12 12 13 13 14 15 15 16 15 14 13 14 15 15 15 15 15 14 14 14 15 16 17 17 18 19 19 19 19 19 19 20 20 21 21 21 20 19 17 16 15 15 15 15 16 17 17 18 18 18 18 17 16 15 15 15 16 16 17 18 19 20 21 21 21 22 22 22 21 20 19 19 18 18 17 15 14
14 14 12 11 10 9 8 9 10 11 12 13 13 13 14 14 15 15 14 13 13 13 14 15 15 16 16 16 17 17 16 17 18 18 19 19 18 18 18 18 17 17 17 18 19 18 18 18 18 16 15 15 16 18 19 20 20 20 19 18 17 16 16 16 16 17 17 18 19 19 20 20 20 21 21 21 21 20 19 18 17 16 17 18 17 15 13
12 11 9 7 5 5 7 8 9 10 11 12 13 13 13 13 13 13 12 11 11 11 12 14 15 16 16 17 18 18 17 18 19 20 20 19 18 17 16 16 15 16 18 19 19 18 18 19 19 19 17 16 16 17 19 20 21 21 20 19 17 17 17 17 17 18 18 19 19 20 20 20 21 21 21 20 19 18 17 17 17 18 19 18 16 14 13
9 9 8 7 7 7 7 8 9 10 11 12 13 13 12 12 12 11 11 11 12 12 13 14 15 16 17 17 17 17 17 17 18 19 19 19 19 19 18 17 17 17 18 19 19 20 20 20 20 20 19 19 17 16 16 17 18 19 19 18 17 16 16 16 16 17 18 18 18 18 18 19 19 19 19 18 17 16 17 18 19 20 20 18 16 14 14
7 7 8 8 8 8 9 9 9 9 10 11 12 12 12 13 13 12 11 12 13 14 14 14 14 15 15 15 15 15 15 15 15 15 15 17 18 19 19 19 19 19 19 18 19 19 19 19 19 19 18 18 17 15 15 15 16 16 15 14 13 12 12 12 13 14 15 15 15 15 16 16 16 16 16 17 18 20 22 22 21 20 19 17 15 14 15
8 8 9 10 11 11 12 11 11 10 10 10 11 12 12 13 14 13 12 12 12 12 13 13 13 13 13 13 13 13 13 13 13 13 14 16 17 18 18 19 19 18 17 17 17 18 18 18 18 18 17 17 16 14 12 12 11 10 10 9 8 6 5 6 7 8 9 10 11 12 13 14 15 16 19 21 23 24 24 23 21 18 16 15 15 16 16
Wind_Direction
275 276 276 276 276 276 278 279 280 282 283 284 285 285 286 286 286 286 286 286 285 284 282 281 280 280 279 278 277 277 276 276 276 276 276 276 276 276 275 274 274 273 272 272 272 271 271 271 270 270 269 269 269 270 271 271 272 271 271 271 272 272 272 272 272 272 273 273 273 274 275 275 274 273 273 272 273 274 275 276 277 277 279 280 279 281 285
275 275 276 277 277 277 278 280 281 282 283 284 285 286 286 286 286 286 285 284 284 283 282 281 280 280 281 280 280 279 278 278 277 277 277 276 277 277 277 276 275 275 274 273 273 272 271 271 271 270 270 269 270 270 270 271 272 272 272 272 272 272 272 272 273 273 273 274 275 275 274 273 273 273 273 272 273 273 274 275 275 276 277 277 277 281 286
274 274 275 276 278 278 279 280 282 283 283 284 285 286 286 286 286 286 285 284 283 282 281 281 280 279 279 280 281 281 281 281 280 279 279 279 278 278 278 278 277 277 276 275 274 274 273 272 271 271 271 270 269 269 268 269 269 270 271 272 272 271 272 272 273 272 273 274 276 276 276 275 274 273 272 273 273 273 273 274 274 275 275 274 275 281 284
274 275 275 276 278 279 280 281 282 283 284 285 285 286 286 286 286 286 285 285 284 283 282 282 281 280 280 280 280 280 281 282 282 282 281 280 280 280 279 279 278 278 278 277 276 276 275 274 273 272 272 272 271 270 268 268 268 268 269 270 271 271 270 271 272 272 272 273 273 274 275 276 276 276 275 274 274 273 273 273 273 274 274 274 278 282 283
275 276 276 277 278 279 280 280 281 283 284 284 285 285 285 285 285 285 285 285 285 284 283 283 282 282 282 282 281 281 281 281 281 282 282 281 281 280 280 280 279 279 278 278 278 277 276 276 275 274 274 274 273 273 272 270 268 268 268 267 268 269 269 269 270 270 270 271 271 272 273 273 274 275 275 275 275 274 274 274 273 272 272 276 282 283 282
277 277 277 278 279 280 281 281 282 283 283 283 284 284 285 285 285 285 285 285 285 285 285 285 284 284 283 283 283 283 283 283 283 282 282 282 282 281 281 280 280 279 279 278 278 278 277 276 276 275 275 275 275 275 275 274 273 271 270 269 269 268 268 269 269 269 269 269 269 270 270 271 272 272 273 274 275 275 275 273 272 273 275 280 283 280 279
277 278 278 279 280 280 281 282 282 282 283 283 284 284 285 285 285 285 286 286 286 286 286 286 286 286 285 285 284 283 283 283 282 282 282 282 282 282 281 281 280 279 279 278 277 276 276 275 274 274 275 275 275 275 275 275 276 275 274 274 273 271 271 270 270 270 270 269 270 270 270 271 271 271 271 272 273 273 274 273 275 278 280 281 280 278 277
277 278 279 279 280 280 281 282 282 283 283 284 284 285 285 285 285 286 286 286 286 287 287 287 287 287 286 286 286 285 283 282 281 281 280 280 279 279 279 279 278 277 277 276 276 275 275 275 274 274 274 274 274 274 274 274 274 274 275 275 275 275 274 273 272 271 270 271 272 272 272 272 271 270 270 271 271 271 272 275 279 280 279 278 278 278 278
277 278 278 279 280 281 281 282 283 283 284 284 285 285 285 286 286 286 286 286 286 286 286 286 286 286 286 285 285 285 283 282 281 280 279 279 278 276 275 275 275 274 273 273 273 273 274 274 275 274 274 273 272 272 272 272 272 272 273 273 273 275 275 275 274 273 272 273 273 273 274 273 271 270 271 271 271 273 275 276 277 276 276 277 277 278 280
277 278 278 279 280 281 281 282 283 283 284 284 285 285 286 286 286 286 286 286 286 286 286 285 285 285 284 283 283 282 282 281 280 279 278 277 276 275 274 273 272 271 271 271 270 270 271 272 273 273 272 272 271 271 271 271 271 271 271 271 272 272 274 275 275 275 275 273 273 274 273 270 270 273 275 275 274 276 276 275 274 273 275 276 277 279 281
276 277 278 278 279 280 281 281 282 282 283 283 284 284 285 285 286 286 285 286 286 285 285 285 285 284 284 283 282 281 281 281 281 280 278 277 275 274 273 273 272 271 270 270 270 270 270 270 270 270 271 271 271 271 271 271 271 272 272 272 272 272 273 274 274 276 275 273 274 273 268 267 272 277 278 277 277 275 273 273 273 274 276 277 278 279 279
276 276 277 278 279 279 280 281 282 282 283 283 284 284 285 285 286 286 286 286 286 285 285 285 284 284 284 283 283 282 282 281 281 281 280 279 277 276 275 274 273 273 271 271 270 270 269 269 269 270 270 271 271 271 272 272 273 273 274 274 274 273 274 274 275 276 275 274 273 270 267 271 277 276 273 274 275 273 273 274 274 275 276 276 276 277 277
276 277 278 279 279 280 281 282 282 283 284 284 285 285 285 285 285 285 286 285 285 286 285 285 285 285 284 283 283 283 282 282 281 281 281 281 280 279 277 276 274 273 273 272 272 272 271 270 270 270 271 272 272 271 272 273 273 274 275 275 276 276 277 277 277 277 277 275 272 270 272 275 276 273 271 272 272 272 274 275 274 274 275 276 276 276 274
277 278 279 279 280 281 282 282 283 283 284 284 284 285 285 285 285 285 285 285 285 285 285 285 285 285 284 284 283 283 282 282 281 281 281 281 280 280 278 277 276 275 274 274 273 273 273 272 271 270 270 270 271 271 271 272 273 274 275 277 278 278 278 278 278 277 277 276 275 275 276 275 272 272 274 273 271 272 274 274 272 272 273 274 274 273 272
277 278 279 280 280 281 281 282 282 283 283 283 284 284 284 285 285 285 285 285 285 284 284 285 285 285 284 284 283 283 282 282 281 281 280 280 280 279 278 278 279 278 277 275 273 272 272 273 272 272 271 270 271 272 272 272 273 274 274 276 277 277 278 278 278 277 277 277 277 276 274 273 274 275 276 274 274 274 274 275 273 270 270 271 270 270 271
277 278 279 279 280 280 281 281 282 282 283 283 284 284 284 285 285 285 285 285 285 284 284 284 284 284 284 284 283 283 282 282 281 281 280 279 279 278 278 278 278 278 278 276 274 272 271 271 272 272 272 273 274 274 274 274 273 273 273 274 275 276 277 277 277 277 276 276 276 275 275 276 277 276 275 274 275 275 275 276 274 269 268 270 270 270 271
277 278 278 279 279 280 280 281 281 282 282 283 283 283 284 284 284 284 284 284 284 284 284 283 283 283 283 283 283 283 282 282 282 281 280 280 278 277 277 277 277 277 277 276 275 273 272 271 271 272 273 275 275 275 275 275 274 274 275 275 275 274 275 275 276 277 277 277 277 276 277 278 279 277 275 274 274 274 274 273 272 270 270 270 270 271 272
277 277 278 278 279 279 280 280 281 281 281 282 282 282 283 283 283 283 283 283 282 283 283 283 283 283 283 283 282 282 282 282 282 281 281 280 279 277 277 277 277 277 276 276 275 275 274 273 274 274 274 274 274 274 275 275 276 276 277 277 276 275 274 274 274 274 276 277 278 278 278 279 280 278 276 274 274 274 272 272 273 274 273 272 272 272 274
277 278 278 278 279 279 279 279 280 280 280 280 281 281 281 281 282 282 282 281 281 281 282 282 282 282 282 282 282 283 283 282 282 281 281 280 279 279 279 279 279 278 276 275 274 274 274 275 275 276 276 275 275 276 277 277 277 278 278 277 277 277 277 275 275 275 276 276 277 278 279 279 279 278 277 275 274 272 271 272 274 274 274 273 272 272 274
277 278 278 278 278 279 279 279 279 279 280 280 280 280 281 281 281 281 281 281 280 280 281 281 281 281 281 282 282 282 282 282 282 281 280 280 281 281 281 281 280 278 277 276 276 276 276 276 276 277 277 277 277 277 278 278 278 278 278 278 278 278 278 277 277 278 277 275 275 276 277 278 277 276 276 274 272 271 271 272 272 271 271 271 271 272 274
277 277 277 278 278 278 278 279 279 279 279 280 280 280 280 280 280 280 280 280 280 280 280 280 280 281 281 281 282 282 281 281 281 281 282 282 281 281 281 280 279 279 279 279 279 279 279 279 278 277 277 278 278 278 279 280 279 279 280 279 279 278 277 277 277 277 275 275 275 275 275 275 274 272 271 271 271 271 271 271 271 270 268 268 268 271 273
276 277 277 277 278 278 278 278 279 279 279 279 279 279 280 280 280 280 279 279 280 280 279 279 280 280 281 281 281 281 281 281 281 282 282 281 280 280 280 280 279 279 279 280 280 280 279 279 279 279 279 280 279 280 281 281 281 281 280 279 279 278 277 276 275 273 271 271 273 272 270 269 268 267 267 267 268 269 270 271 272 270 269 268 268 269 271
276 277 277 277 277 277 278 278 278 278 278 278 279 279 279 279 279 279 279 279 279 279 279 279 279 280 281 280 280 280 281 282 282 282 282 281 280 281 281 281 281 280 280 281 280 280 280 280 280 280 280 280 281 281 281 280 280 280 280 279 278 276 273 271 270 270 269 268 268 268 266 265 265 265 265 265 266 266 267 268 268 269 271 273 271 267 265
275 276 276 276 276 277 277 277 277 277 278 278 278 278 278 279 279 279 279 279 280 279 279 278 280 281 280 279 279 280 282 283 283 282 283 283 283 283 283 283 282 282 282 283 282 282 282 282 281 280 280 280 281 281 279 278 278 277 276 276 274 271 268 266 267 269 268 265 264 265 264 263 263 263 263 263 264 263 263 263 263 266 272 272 266 260 257
274 274 275 275 275 275 276 276 276 277 277 277 277 278 278 278 279 279 279 280 280 280 279 278 280 281 280 280 281 282 283 283 284 284 285 286 286 285 284 284 283 283 284 284 284 284 283 282 281 280 280 281 280 277 273 272 271 270 269 268 267 265 263 262 262 263 263 261 259 259 259 259 259 259 259 260 261 263 264 264 264 266 268 266 262 262 264
273 273 273 274 274 274 275 275 275 275 276 276 277 277 277 278 278 279 280 281 281 280 280 280 280 280 281 282 284 284 285 285 286 287 287 287 287 286 285 285 285 285 285 285 284 283 281 280 279 278 278 278 275 270 267 266 265 265 264 263 261 258 256 256 253 250 252 255 255 254 254 254 254 254 254 255 256 257 258 257 256 257 259 261 264 269 273
273 273 273 273 273 274 274 274 275 275 275 276 276 277 277 278 279 280 281 282 282 282 283 283 282 281 282 284 285 285 286 287 287 288 288 287 286 285 285 286 286 286 285 283 281 278 275 274 274 275 275 273 270 267 267 267 265 262 260 259 254 247 245 246 243 238 240 245 248 250 253 254 254 253 251 250 252 254 254 254 253 256 261 267 272 278 282
273 273 273 273 274 274 275 275 275 276 276 277 277 278 278 280 281 282 282 282 283 283 284 285 284 283 284 285 286 286 287 288 289 288 287 285 285 285 285 286 284 283 280 276 273 270 268 269 270 271 271 271 270 267 266 266 264 262 261 260 254 244 238 237 237 235 233 236 239 243 249 254 255 254 252 251 253 256 258 258 260 264 269 273 276 279 282
273 273 273 274 274 274 275 275 276 276 277 277 278 278 279 281 282 282 282 282 282 283 284 284 284 285 285 286 287 288 289 290 289 287 284 283 284 285 284 283 281 279 275 271 267 265 264 264 265 267 269 270 270 267 265 263 263 265 267 264 258 249 240 236 238 241 241 240 241 243 245 248 250 250 251 253 256 259 262 265 267 269 271 272 273 275 278
272 272 273 273 273 274 274 275 275 276 276 277 278 279 280 281 282 282 281 281 281 282 283 283 284 285 287 288 290 290 289 288 285 283 282 283 284 283 282 280 279 276 273 268 260 255 255 257 261 267 272 272 270 268 268 266 265 267 269 264 259 255 247 240 242 247 251 252 252 252 251 250 248 247 247 250 254 259 264 265 265 265 266 269 273 276 280
271 271 272 272 273 273 274 274 275 275 276 276 277 278 280 280 280 279 278 278 279 280 281 282 283 285 288 291 291 288 285 282 280 279 280 281 282 281 280 280 277 273 270 262 250 245 249 253 259 267 271 270 269 270 269 267 268 270 269 263 259 256 251 245 246 250 253 255 256 257 257 256 254 254 255 255 258 262 265 266 265 266 270 276 279 280 280
272 272 272 273 273 274 274 275 275 275 276 277 277 279 280 280 278 276 276 276 277 277 277 279 282 286 290 292 289 283 280 279 277 276 276 276 276 276 275 276 273 267 264 259 252 251 255 257 259 262 262 262 266 269 267 269 276 277 266 258 256 253 247 244 248 252 252 252 254 257 257 257 257 258 259 261 264 267 269 271 275 277 279 280 278 276 272
273 273 274 274 274 274 275 275 275 276 276 277 278 280 280 277 274 272 272 272 273 273 276 279 282 287 291 290 284 280 280 278 275 273 270 268 268 267 265 264 264 262 261 261 261 261 262 259 256 256 255 254 259 262 263 269 280 277 260 254 254 250 245 244 250 255 256 253 252 254 256 258 259 258 259 262 267 270 271 274 276 277 277 274 269 262 257
273 273 274 274 274 274 274 274 275 275 275 277 279 278 274 268 266 267 268 269 270 272 275 278 281 285 287 285 280 279 278 274 269 266 263 260 259 259 256 254 255 256 259 262 264 264 263 261 259 257 254 254 258 260 262 268 274 269 260 255 253 251 249 251 255 258 259 257 255 256 258 259 259 258 257 260 264 267 268 270 270 269 266 260 253 249 249
273 273 273 273 273 273 273 273 274 275 276 276 274 267 260 259 263 266 267 268 268 269 271 275 278 280 282 280 277 276 273 268 262 259 256 253 251 251 253 253 253 254 256 258 261 264 265 264 262 259 257 257 258 259 261 265 266 264 262 261 258 254 254 256 258 261 261 261 260 260 259 258 257 255 253 253 254 256 258 259 258 255 250 245 243 246 250
272 272 272 271 271 271 272 273 273 272 271 266 258 253 254 259 263 265 265 264 263 265 269 272 274 277 279 278 275 274 271 266 260 255 251 248 246 247 252 254 253 252 253 255 258 262 264 265 265 262 258 258 259 261 262 262 261 260 261 261 257 254 255 258 260 261 261 260 259 259 259 257 255 252 249 247 246 245 245 245 243 240 239 240 243 248 252
270 268 267 267 267 268 269 269 266 261 255 250 249 251 254 257 257 256 257 258 260 263 268 271 274 277 279 277 275 272 264 257 253 250 246 244 245 248 252 254 252 251 253 255 257 259 261 264 265 262 260 263 266 267 265 263 260 260 261 260 258 256 257 259 259 258 257 256 256 256 254 253 251 250 249 248 246 243 240 237 235 235 237 241 246 250 254
263 261 259 259 261 263 262 258 251 245 242 243 246 247 247 248 249 250 253 257 260 263 267 271 277 280 276 271 269 265 255 248 245 244 242 243 245 248 251 253 253 254 256 258 258 258 259 261 261 259 261 268 272 271 270 269 265 263 262 262 260 257 255 256 256 256 255 253 251 250 248 246 245 244 243 244 244 242 238 235 234 235 240 245 249 253 257
252 252 251 252 254 253 245 236 233 234 234 235 236 237 239 242 247 250 254 258 262 263 266 272 277 273 264 259 256 252 249 245 240 239 243 245 247 250 252 252 253 254 255 255 255 253 252 256 258 257 261 270 275 275 274 272 269 265 263 260 257 253 250 250 250 249 247 245 244 243 241 239 236 235 235 236 237 238 237 238 238 241 245 249 253 256 261
241 242 242 239 235 228 222 221 224 226 226 228 232 235 238 242 248 251 254 257 261 263 266 271 270 261 254 249 240 236 240 242 242 246 252 253 252 254 255 255 254 254 253 254 255 251 248 251 254 255 260 272 278 275 270 268 270 271 267 260 255 250 246 243 241 239 238 238 238 237 236 233 231 230 231 231 233 235 236 238 240 243 247 251 255 259 264
229 228 223 216 213 213 214 218 221 223 225 230 234 238 241 245 248 251 254 257 260 263 266 266 257 249 243 237 230 230 236 241 245 251 257 257 255 254 255 255 254 253 252 254 255 253 251 252 253 255 262 271 274 270 267 267 272 275 270 258 248 243 240 238 236 235 235 236 236 236 234 232 232 232 232 233 234 235 236 237 239 242 247 252 257 262 265
217 215 210 207 208 211 213 215 219 222 227 231 236 241 245 247 250 255 261 265 265 263 258 248 236 230 230 231 232 236 241 246 250 253 255 255 254 253 252 251 251 249 249 252 255 256 256 256 257 261 265 267 263 262 264 266 271 275 273 264 252 244 239 237 236 235 235 236 236 236 235 234 234 235 235 235 236 236 236 237 240 244 249 255 259 261 262
212 212 210 209 210 214 216 216 219 222 226 232 239 245 251 256 259 262 267 268 258 245 237 233 226 219 220 227 234 240 246 251 253 253 253 253 253 251 249 247 246 246 247 249 253 255 258 259 262 266 268 266 261 261 264 267 272 276 277 275 268 258 248 242 239 236 235 235 236 236 236 236 236 237 237 237 237 237 237 240 244 249 254 257 257 257 257
213 214 214 213 214 216 218 219 222 226 230 235 242 247 251 257 260 256 249 243 236 228 225 226 223 219 220 226 233 241 247 252 253 252 252 252 250 247 244 243 243 244 247 250 252 253 257 261 264 266 268 268 266 266 267 268 271 274 276 276 273 265 256 250 245 241 239 238 237 237 237 237 237 238 238 238 239 240 242 246 251 254 254 252 250 250 252
216 218 218 217 217 220 222 225 229 233 235 236 238 240 239 239 237 231 226 226 227 224 221 220 218 217 219 223 230 238 245 249 249 247 246 247 247 245 243 243 243 243 245 249 252 255 259 264 267 269 272 273 271 267 265 265 266 266 266 267 266 262 258 255 251 248 247 245 243 242 241 240 240 241 242 242 244 246 248 251 252 249 247 246 246 245 242
220 222 224 224 225 227 229 231 231 232 231 229 230 231 228 224 222 222 223 222 222 220 218 217 215 213 212 217 229 240 248 251 249 245 243 245 248 249 249 248 248 248 249 253 258 264 268 270 270 271 272 271 267 263 260 258 256 256 257 259 259 258 256 255 254 254 253 253 251 249 247 246 246 247 247 248 249 249 248 247 244 241 239 239 237 230 222
222 223 225 227 228 228 228 226 224 223 223 222 223 224 224 221 219 221 222 219 216 215 215 215 214 211 211 219 232 244 250 254 254 250 247 247 250 254 256 257 259 261 262 262 266 270 274 275 274 270 264 258 253 251 251 251 250 251 252 253 254 255 256 256 256 255 254 252 251 249 247 246 246 245 245 245 244 242 240 238 236 233 229 224 218 211 208
221 221 224 228 226 217 210 210 212 214 215 214 215 218 221 220 218 218 218 217 217 217 217 218 219 218 221 230 241 248 252 254 256 254 251 250 253 259 263 266 269 274 274 271 270 271 273 273 274 273 267 258 249 246 246 247 249 252 252 253 254 256 257 256 255 252 250 249 247 245 243 242 240 239 239 238 237 237 235 232 225 218 211 207 204 201 202
216 215 213 207 184 165 171 188 199 204 208 211 213 214 215 214 212 212 214 217 220 221 222 223 226 229 234 243 251 255 256 256 256 256 256 257 260 264 267 269 271 274 274 273 274 274 274 275 277 279 277 272 265 257 253 251 252 254 255 257 259 260 259 257 256 254 252 250 247 245 242 239 237 236 236 234 233 231 226 214 200 193 194 198 200 198 197
206 203 193 175 157 151 163 181 192 199 205 209 209 209 209 207 203 202 205 210 216 221 226 230 235 241 247 253 259 263 262 260 258 259 260 261 262 265 268 270 272 273 274 276 277 278 278 279 280 279 277 276 271 264 258 255 253 253 254 257 260 263 263 262 259 257 254 250 246 242 238 235 233 231 229 224 218 209 199 188 182 183 189 196 199 197 196
180 172 171 169 166 164 169 180 188 192 196 200 202 204 204 199 194 194 202 213 220 227 234 239 244 249 255 259 261 263 264 264 264 264 264 263 264 265 267 270 274 276 279 280 280 280 279 278 277 277 276 274 267 260 255 252 251 253 255 255 257 259 261 259 253 249 244 240 235 231 227 223 219 214 205 196 187 179 175 173 176 182 190 196 198 195 194
151 142 150 160 163 162 164 168 170 170 172 180 190 197 202 201 199 203 213 224 230 235 241 246 250 254 258 260 260 262 265 267 269 269 268 266 265 266 268 273 277 280 279 277 277 277 278 278 277 277 276 273 269 266 261 254 249 248 243 231 222 226 243 244 234 225 218 213 209 205 199 193 185 178 172 168 167 167 168 172 177 186 194 195 188 182 182